TimePDT,TemperatureF,Dew PointF,Humidity,Sea Level PressureIn,VisibilityMPH,Wind Direction,Wind SpeedMPH,Gust SpeedMPH,PrecipitationIn,Events,Conditions,WindDirDegrees,DateUTC
5:00 AM,34,33,96,30.08,,NNW,10.4,,,,,330,2012-10-31 12:00:00
6:00 AM,42.8,41.0,93,29.83,0.0,Calm,Calm,-,N/A,Fog,Light Drizzle,0,2012-10-31 13:00:00
7:00 AM,42.8,41.0,93,29.81,0.1,Calm,Calm,-,N/A,Fog,Light Drizzle,0,2012-10-31 14:00:00
8:00 AM,42.8,41.0,93,29.80,0.1,Calm,Calm,-,N/A,Fog,Light Drizzle,0,2012-10-31 15:00:00
9:00 AM,42.8,41.0,93,29.81,0.1,Calm,Calm,-,N/A,Fog,Light Drizzle,0,2012-10-31 16:00:00
9:39 AM,-9999,-9999,N/A,-9999,0.5,Calm,Calm,-,N/A,Fog,Light Drizzle,0,2012-10-31 16:39:00
9:51 AM,-9999,-9999,N/A,-9999,0.5,Calm,Calm,-,N/A,Fog,Fog,0,2012-10-31 16:51:00
10:00 AM,42.8,42.8,100,29.80,0.5,Calm,Calm,-,N/A,Fog,Light Drizzle,0,2012-10-31 17:00:00
10:42 AM,-9999,-9999,N/A,-9999,0.5,Calm,Calm,-,N/A,Fog,Light Drizzle,0,2012-10-31 17:42:00
11:00 AM,42.8,42.8,100,29.78,0.5,Calm,Calm,-,N/A,Fog,Light Drizzle,0,2012-10-31 18:00:00
11:29 AM,-9999,-9999,N/A,-9999,1.5,Calm,Calm,-,N/A,,Overcast,0,2012-10-31 18:29:00
12:00 PM,44.6,42.8,93,29.77,2.0,Calm,Calm,-,N/A,,Overcast,0,2012-10-31 19:00:00
12:42 PM,-9999,-9999,N/A,-9999,3.0,Calm,Calm,-,N/A,,Overcast,0,2012-10-31 19:42:00
1:00 PM,44.6,42.8,93,29.75,3.0,Calm,Calm,-,N/A,,Overcast,0,2012-10-31 20:00:00
2:00 PM,46.4,42.8,87,29.71,3.0,Calm,Calm,-,N/A,,Overcast,0,2012-10-31 21:00:00
3:00 PM,46.4,44.6,93,29.70,3.0,Calm,Calm,-,N/A,,Overcast,0,2012-10-31 22:00:00
4:00 PM,46.4,42.8,87,29.69,4.0,Calm,Calm,-,N/A,,Overcast,0,2012-10-31 23:00:00
5:00 PM,25,21,78,30.30,,NNW,12.7,,,,,340,2012-11-01 00:00:00
5:00 PM,46.4,44.6,93,29.68,4.0,Calm,Calm,-,N/A,,Overcast,0,2012-11-01 00:00:00
6:00 PM,46.4,44.6,93,29.69,4.0,Calm,Calm,-,N/A,,Overcast,0,2012-11-01 01:00:00
11:00 PM,22,17,75,30.33,,NE,11.5,,,,,40,2012-11-01 06:00:00